This is the latest recevied weather packets stored in our database for station/object HG5CJW-10. If no packets are shown the sender has not sent any weather packets the latest 10 day(s).
| Time | Temp. | Humidity | Pressure | Rain* | Wind** | Luminosity | Snow |
|---|---|---|---|---|---|---|---|
| 1788039974 | 23.33° C | 50% | 1034.8 hPa | - | - | - | - |
| 1788039068 | 23.89° C | 50% | 1035.2 hPa | - | - | - | - |
| 1788038168 | 23.89° C | 50% | 1035.1 hPa | - | - | - | - |
| 1788037268 | 23.89° C | 49% | 1034.6 hPa | - | - | - | - |
| 1788036368 | 24.44° C | 49% | 1035.1 hPa | - | - | - | - |
| 1788035468 | 25° C | 49% | 1035 hPa | - | - | - | - |
| 1788034568 | 25° C | 49% | 1035 hPa | - | - | - | - |
| 1788033668 | 25.56° C | 48% | 1035.1 hPa | - | - | - | - |
| 1788032768 | 25.56° C | 48% | 1035 hPa | - | - | - | - |
| 1788031868 | 26.11° C | 48% | 1034.9 hPa | - | - | - | - |
| 1788030968 | 26.11° C | 47% | 1034.8 hPa | - | - | - | - |
| 1788030068 | 26.67° C | 47% | 1034.7 hPa | - | - | - | - |
| 1788029168 | 26.67° C | 46% | 1034.7 hPa | - | - | - | - |
| 1788028268 | 27.22° C | 46% | 1034.5 hPa | - | - | - | - |
| 1788022862 | 28.33° C | 44% | 1033.8 hPa | - | - | - | - |
| 1788021962 | 28.33° C | 44% | 1033.7 hPa | - | - | - | - |
| 1788021062 | 28.33° C | 44% | 1033.6 hPa | - | - | - | - |
| 1788020162 | 28.33° C | 43% | 1033.7 hPa | - | - | - | - |
| 1788019262 | 28.33° C | 43% | 1033.8 hPa | - | - | - | - |
| 1788018361 | 28.33° C | 43% | 1033.7 hPa | - | - | - | - |
| 1788017462 | 28.33° C | 43% | 1033.7 hPa | - | - | - | - |
| 1788016561 | 28.33° C | 43% | 1033.8 hPa | - | - | - | - |
| 1788015661 | 28.33° C | 43% | 1033.6 hPa | - | - | - | - |
| 1788014761 | 28.33° C | 43% | 1033.7 hPa | - | - | - | - |
| 1788013861 | 27.78° C | 43% | 1033.7 hPa | - | - | - | - |
* Rain since midnight (hover to see other rain measurements)
** Current wind speed in m/s (hover to see current wind gust speed)